Regional Weather Roundup
Issued by NWS

Home | Current Version | Previous Version | Text Only | Print | Product List | Glossary On
Versions: 1 2 3 4 5 6 7 8 9 10 11 12 13 14 15 16 17 18 19 20 21 22 23 24 25 26 27 28 29 30 31 32 33 34 35 36 37 38 39 40 41 42 43 44 45 46 47 48 49 50
457
ASUS45 KSLC 281010
RWRUT

UTAH REGIONAL WEATHER ROUNDUP
NATIONAL WEATHER SERVICE SALT LAKE CITY UT
400 AM MDT MON MAY 28 2018

UTZ001>011-023>025-281100-

NORTHERN UTAH

CITY           SKY/WX    TMP DP  RH WIND       PRES   REMARKS
BRIGHAM CITY   PTCLDY    54  47  76 NW3       30.03S
HILL AFB       PTCLDY    52  43  71 E10       30.03F
LOGAN          PTCLDY    51  45  79 CALM      30.02F
OGDEN          PTCLDY    50  45  83 S9        30.02S
SALT LAKE CITY MOCLDY    54  48  82 S3        30.02S
TOOELE VALLEY  MOCLDY    46  46 100 SW6       30.04R
WENDOVER       PTCLDY    55  49  80 NE6       30.05R
HEBER CITY       N/A     39  36  87 E6        30.05F WCI  35
WEST JORDAN    MOCLDY    51  48  90 CALM      30.04F

$$

UTZ011>015-024>027-281100-

CENTRAL/NORTHEAST UTAH

CITY           SKY/WX    TMP DP  RH WIND       PRES   REMARKS
PROVO AIRPORT  PTCLDY    48  44  86 CALM      30.04S
MOAB/CANYONLAN CLEAR     55  30  38 W5        29.93S
DELTA          PTCLDY    46  43  87 CALM      30.04F
PRICE          CLEAR     50  36  58 NW6       30.00S
ROOSEVELT      PTCLDY    52  36  54 NW3       30.00S
VERNAL         CLEAR     59  39  47 E8        29.99R

$$

UTZ013>016-019>022-027-281100-

SOUTHERN UTAH

CITY           SKY/WX    TMP DP  RH WIND       PRES   REMARKS
BRYCE CANYON   CLEAR     30  25  81 CALM      30.12S
CEDAR CITY     MOCLDY    43  38  82 CALM      30.05S
MILFORD        MOCLDY    46  42  86 E5        30.04S
ST GEORGE      MOSUNNY   63  37  38 S6        29.92R
HANKSVILLE     PTCLDY    46  28  49 CALM      29.98S
BLANDING         N/A     48  21  35 N8        30.06S

$$

REGIONAL REPORTS     COLORADO/ARIZONA

CITY           SKY/WX    TMP DP  RH WIND       PRES   REMARKS
CRAIG, CO      CLEAR     45  39  79 SW7       30.04S
GRAND JUNCTION CLEAR     56  21  25 CALM      29.94R
RIFLE, CO      CLEAR     45  20  36 CALM      29.99S
MONTROSE, CO   CLEAR     51  19  28 SE10      30.01R
CORTEZ, CO     CLEAR     42  21  43 E9        30.02S
COLORADO CITY    N/A     45  30  57 CALM      30.03F
PAGE, AZ       PTCLDY    64  33  31 W3        29.95R
GRAND CANYON   CLEAR     39  19  44 NE3       30.08S
KINGMAN, AZ    CLEAR     58  27  30 S5        29.93S
FLAGSTAFF, AZ  CLEAR     45  25  45 SW3       30.10S

$$

REGIONAL REPORTS    NEVADA/IDAHO/WYOMING

CITY           SKY/WX    TMP DP  RH WIND       PRES   REMARKS
LAS VEGAS, NV  PTCLDY    75  39  27 NE8       29.86R
ELY, NY        CLOUDY    46  43  89 W6        30.10F
ELKO, NV       MOCLDY    47  44  90 CALM      30.09S
POCATELLO, ID  PTCLDY    46  45  96 W3        30.05S
BURLEY, ID     CLEAR     50  45  83 S5        30.03S
FORT BRIDGER,    N/A     45  38  76 SE10      30.15R
EVANSTON, WY   PTCLDY    48  40  73 NE5       30.11R
ROCK SPRINGS,  PTCLDY    48  38  68 NE8       30.10F

$$




USA.gov is the U.S. government's official web portal to all federal, state and local government web resources and services.